TimePST,TemperatureF,Dew PointF,Humidity,Sea Level PressureIn,VisibilityMPH,Wind Direction,Wind SpeedMPH,Gust SpeedMPH,PrecipitationIn,Events,Conditions,WindDirDegrees,DateUTC
12:54 AM,37.9,32.0,79,30.26,3.0,Calm,Calm,-,N/A,,Haze,0,2013-01-05 08:54:00
1:54 AM,39.0,33.1,79,30.26,3.0,Calm,Calm,-,N/A,,Haze,0,2013-01-05 09:54:00
2:54 AM,39.0,33.1,79,30.25,3.0,East,5.8,-,N/A,,Haze,90,2013-01-05 10:54:00
3:54 AM,35.1,30.0,82,30.25,3.0,Calm,Calm,-,N/A,,Haze,0,2013-01-05 11:54:00
4:54 AM,33.1,28.9,85,30.25,4.0,East,4.6,-,N/A,,Clear,90,2013-01-05 12:54:00
5:54 AM,39.0,32.0,76,30.25,4.0,East,4.6,-,N/A,,Haze,100,2013-01-05 13:54:00
6:54 AM,36.0,28.9,76,30.25,6.0,Calm,Calm,-,N/A,,Haze,0,2013-01-05 14:54:00
7:54 AM,37.0,28.9,73,30.26,6.0,Calm,Calm,-,N/A,,Haze,0,2013-01-05 15:54:00
8:54 AM,46.9,34.0,61,30.26,4.0,Calm,Calm,-,N/A,,Haze,0,2013-01-05 16:54:00
9:54 AM,51.1,34.0,52,30.27,4.0,Calm,Calm,-,N/A,,Haze,0,2013-01-05 17:54:00
10:54 AM,57.0,28.0,33,30.24,8.0,Calm,Calm,-,N/A,,Clear,0,2013-01-05 18:54:00
11:54 AM,61.0,32.0,34,30.21,7.0,Variable,3.5,-,N/A,,Clear,0,2013-01-05 19:54:00
12:54 PM,63.0,28.0,27,30.18,10.0,WNW,5.8,-,N/A,,Clear,300,2013-01-05 20:54:00
1:54 PM,64.0,25.0,23,30.16,10.0,WNW,4.6,-,N/A,,Clear,300,2013-01-05 21:54:00
2:54 PM,64.4,26.6,24,30.15,10.0,Calm,Calm,-,N/A,,Clear,0,2013-01-05 22:54:00
3:54 PM,63.0,34.0,34,30.14,9.0,WSW,8.1,-,N/A,,Clear,240,2013-01-05 23:54:00
4:54 PM,59.0,35.1,41,30.14,9.0,SW,3.5,-,N/A,,Clear,230,2013-01-06 00:54:00
5:54 PM,57.0,33.1,40,30.14,8.0,Calm,Calm,-,N/A,,Clear,0,2013-01-06 01:54:00
6:54 PM,51.1,33.1,50,30.14,8.0,Calm,Calm,-,N/A,,Clear,0,2013-01-06 02:54:00
7:54 PM,53.1,35.1,50,30.12,7.0,East,5.8,-,N/A,,Clear,90,2013-01-06 03:54:00
8:54 PM,50.0,34.0,54,30.12,7.0,Calm,Calm,-,N/A,,Clear,0,2013-01-06 04:54:00
9:54 PM,53.1,33.1,47,30.09,9.0,East,5.8,-,N/A,,Clear,100,2013-01-06 05:54:00
10:54 PM,48.0,33.1,56,30.08,8.0,WSW,3.5,-,N/A,,Mostly Cloudy,250,2013-01-06 06:54:00
11:54 PM,48.9,35.1,59,30.10,7.0,WNW,11.5,18.4,N/A,,Overcast,300,2013-01-06 07:54:00